Location: Eaton
(41.3139°N, 82.0207°W)
Time: 13:32:30
(UTC+00:00)

Cosmos 1937 Rocket - Pass Details

Date: 17 June 2021
Orbit: 746 x 780 km, 74.0° (Epoch: 30 July)

Event Time Altitude Azimuth Distance (km) Brightness Sun altitude
Rises 07:22:38 0° 338° (NNW) 3,273 7.4 -20.1°
Reaches altitude 10° 07:25:02 10° 337° (NNW) 2,342 6.5 -19.9°
Maximum altitude 07:30:21 75° 253° (WSW) 810 3.4 -19.5°
Enters shadow 07:33:03 30° 173° (S) 1,376 4.4 -19.2°
